TimeEST,TemperatureF,Dew PointF,Humidity,Sea Level PressureIn,VisibilityMPH,Wind Direction,Wind SpeedMPH,Gust SpeedMPH,PrecipitationIn,Events,Conditions,WindDirDegrees,DateUTC
12:15 AM,51.8,51.8,100,29.90,4.0,North,4.6,-,0.02,,Light Drizzle,10,2013-02-13 05:15:00
12:35 AM,51.8,51.8,100,29.89,8.0,NE,3.5,-,0.03,,Light Drizzle,40,2013-02-13 05:35:00
12:55 AM,51.8,51.8,100,29.90,5.0,ENE,3.5,-,0.03,Rain,Light Rain,70,2013-02-13 05:55:00
1:15 AM,51.8,51.8,100,29.88,2.0,NNE,5.8,-,0.06,Rain,Heavy Rain,30,2013-02-13 06:15:00
1:35 AM,51.8,50.0,94,29.86,2.0,NE,4.6,-,0.24,Rain,Heavy Rain,50,2013-02-13 06:35:00
2:15 AM,50.0,50.0,100,29.85,4.0,ENE,4.6,-,0.01,,Light Drizzle,60,2013-02-13 07:15:00
2:35 AM,48.2,48.2,100,29.85,6.0,NE,5.8,-,0.02,,Light Drizzle,50,2013-02-13 07:35:00
2:55 AM,48.2,48.2,100,29.83,10.0,NE,5.8,-,0.02,,Overcast,50,2013-02-13 07:55:00
3:15 AM,48.2,48.2,100,29.84,9.0,WNW,4.6,-,N/A,Rain,Light Rain,300,2013-02-13 08:15:00
3:35 AM,48.2,48.2,100,29.82,3.0,Calm,Calm,-,0.06,Thunderstorm,Overcast,0,2013-02-13 08:35:00
3:55 AM,48.2,48.2,100,29.78,10.0,NNW,3.5,-,0.06,Thunderstorm,Overcast,340,2013-02-13 08:55:00
4:15 AM,50.0,50.0,100,29.78,8.0,NE,3.5,-,N/A,,Overcast,50,2013-02-13 09:15:00
4:35 AM,51.8,51.8,100,29.78,6.0,East,4.6,-,N/A,,Overcast,100,2013-02-13 09:35:00
4:55 AM,51.8,51.8,100,29.77,5.0,East,6.9,-,N/A,Thunderstorm,Overcast,90,2013-02-13 09:55:00
5:15 AM,51.8,51.8,100,29.78,7.0,SE,4.6,-,N/A,Thunderstorm,Overcast,130,2013-02-13 10:15:00
5:35 AM,53.6,51.8,94,29.76,7.0,East,3.5,-,N/A,,Overcast,100,2013-02-13 10:35:00
5:55 AM,53.6,53.6,100,29.76,5.0,ESE,3.5,-,N/A,Thunderstorm,Overcast,110,2013-02-13 10:55:00
6:15 AM,53.6,53.6,100,29.77,6.0,NNW,4.6,-,N/A,,Overcast,340,2013-02-13 11:15:00
6:35 AM,53.6,53.6,100,29.78,7.0,North,3.5,-,N/A,,Overcast,350,2013-02-13 11:35:00
6:55 AM,53.6,51.8,94,29.78,5.0,Calm,Calm,-,N/A,,Overcast,0,2013-02-13 11:55:00
7:15 AM,51.8,51.8,100,29.78,4.0,Calm,Calm,-,N/A,Thunderstorm,Overcast,0,2013-02-13 12:15:00
7:35 AM,51.8,51.8,100,29.78,3.0,Calm,Calm,-,N/A,,Overcast,0,2013-02-13 12:35:00
7:55 AM,51.8,51.8,100,29.78,2.0,Calm,Calm,-,N/A,,Overcast,0,2013-02-13 12:55:00
8:15 AM,51.8,51.8,100,29.78,1.8,Calm,Calm,-,N/A,,Overcast,0,2013-02-13 13:15:00
8:35 AM,53.6,53.6,100,29.79,0.5,Calm,Calm,-,N/A,Fog,Fog,0,2013-02-13 13:35:00
8:55 AM,53.6,53.6,100,29.80,0.5,Calm,Calm,-,N/A,Fog,Fog,0,2013-02-13 13:55:00
9:15 AM,55.4,55.4,100,29.81,0.8,Calm,Calm,-,N/A,,Overcast,0,2013-02-13 14:15:00
9:35 AM,55.4,55.4,100,29.79,0.2,South,3.5,-,N/A,Fog,Fog,180,2013-02-13 14:35:00
9:55 AM,57.2,57.2,100,29.81,0.2,WSW,3.5,-,N/A,Fog,Fog,240,2013-02-13 14:55:00
10:15 AM,59.0,57.2,94,29.80,0.2,Calm,Calm,-,N/A,Fog,Fog,0,2013-02-13 15:15:00
10:35 AM,60.8,60.8,100,29.80,0.2,West,3.5,-,N/A,Fog,Fog,270,2013-02-13 15:35:00
11:15 AM,62.6,60.8,94,29.80,3.0,West,6.9,-,N/A,,Mostly Cloudy,260,2013-02-13 16:15:00
11:35 AM,64.4,62.6,94,29.78,4.0,WSW,5.8,-,N/A,,Mostly Cloudy,240,2013-02-13 16:35:00
11:55 AM,68.0,64.4,88,29.77,8.0,SW,6.9,-,N/A,,Scattered Clouds,230,2013-02-13 16:55:00
12:15 PM,69.8,64.4,83,29.76,10.0,WSW,10.4,16.1,N/A,,Partly Cloudy,240,2013-02-13 17:15:00
12:35 PM,69.8,64.4,83,29.76,10.0,WSW,15.0,21.9,N/A,,Scattered Clouds,240,2013-02-13 17:35:00
12:55 PM,71.6,64.4,78,29.73,10.0,SW,11.5,19.6,N/A,,Partly Cloudy,230,2013-02-13 17:55:00
1:15 PM,71.6,64.4,78,29.73,9.0,South,10.4,16.1,N/A,,Scattered Clouds,190,2013-02-13 18:15:00
1:35 PM,73.4,64.4,73,29.72,8.0,SSW,11.5,20.7,N/A,,Partly Cloudy,210,2013-02-13 18:35:00
1:55 PM,71.6,64.4,78,29.71,8.0,SSW,11.5,18.4,N/A,,Clear,200,2013-02-13 18:55:00
2:15 PM,71.6,64.4,78,29.70,9.0,SSW,12.7,18.4,N/A,,Partly Cloudy,200,2013-02-13 19:15:00
2:35 PM,71.6,64.4,78,29.70,9.0,SSW,12.7,18.4,N/A,,Clear,210,2013-02-13 19:35:00
2:55 PM,71.6,64.4,78,29.71,8.0,SSW,10.4,-,N/A,,Clear,210,2013-02-13 19:55:00
3:15 PM,71.6,64.4,78,29.72,9.0,SW,8.1,-,N/A,,Clear,220,2013-02-13 20:15:00
3:35 PM,71.6,64.4,78,29.71,8.0,SW,9.2,-,N/A,,Clear,220,2013-02-13 20:35:00
3:55 PM,73.4,64.4,73,29.71,9.0,WSW,5.8,-,N/A,,Clear,240,2013-02-13 20:55:00
4:15 PM,73.4,55.4,53,29.72,10.0,West,12.7,23.0,N/A,,Clear,270,2013-02-13 21:15:00
4:35 PM,71.6,51.8,50,29.74,10.0,West,12.7,18.4,N/A,,Partly Cloudy,280,2013-02-13 21:35:00
4:55 PM,71.6,48.2,43,29.76,10.0,West,13.8,28.8,N/A,,Partly Cloudy,260,2013-02-13 21:55:00
5:15 PM,69.8,46.4,43,29.77,10.0,West,15.0,28.8,N/A,,Scattered Clouds,270,2013-02-13 22:15:00
5:35 PM,69.8,46.4,43,29.77,10.0,West,15.0,21.9,N/A,,Scattered Clouds,270,2013-02-13 22:35:00
5:55 PM,68.0,46.4,46,29.79,10.0,West,24.2,32.2,N/A,Rain,Light Rain,270,2013-02-13 22:55:00
6:15 PM,66.2,46.4,49,29.79,10.0,West,10.4,24.2,N/A,,Mostly Cloudy,270,2013-02-13 23:15:00
6:35 PM,62.6,50.0,63,29.79,10.0,WSW,10.4,17.3,N/A,,Light Drizzle,250,2013-02-13 23:35:00
6:55 PM,62.6,48.2,59,29.80,10.0,WSW,9.2,-,N/A,Rain,Light Rain,250,2013-02-13 23:55:00
7:15 PM,62.6,48.2,59,29.79,10.0,SW,5.8,-,N/A,,Light Drizzle,230,2013-02-14 00:15:00
7:35 PM,62.6,48.2,59,29.79,10.0,WSW,9.2,16.1,N/A,,Overcast,240,2013-02-14 00:35:00
7:55 PM,62.6,46.4,55,29.79,10.0,WSW,8.1,-,N/A,,Overcast,240,2013-02-14 00:55:00
8:15 PM,62.6,46.4,55,29.80,10.0,West,10.4,16.1,N/A,,Overcast,260,2013-02-14 01:15:00
8:35 PM,62.6,46.4,55,29.82,10.0,West,25.3,34.5,N/A,,Overcast,260,2013-02-14 01:35:00
8:55 PM,62.6,46.4,55,29.82,10.0,West,19.6,29.9,N/A,,Overcast,270,2013-02-14 01:55:00
9:15 PM,60.8,46.4,59,29.84,10.0,WNW,20.7,33.4,N/A,,Overcast,290,2013-02-14 02:15:00
9:35 PM,57.2,50.0,77,29.86,10.0,West,12.7,21.9,N/A,,Light Drizzle,280,2013-02-14 02:35:00
9:55 PM,55.4,51.8,88,29.85,4.0,WNW,9.2,18.4,0.04,Rain,Light Rain,290,2013-02-14 02:55:00
10:15 PM,53.6,51.8,94,29.86,7.0,West,10.4,17.3,0.01,,Mostly Cloudy,280,2013-02-14 03:15:00
10:35 PM,53.6,51.8,94,29.87,10.0,West,8.1,-,0.01,,Clear,270,2013-02-14 03:35:00
10:55 PM,53.6,51.8,94,29.87,10.0,West,9.2,16.1,0.01,,Clear,280,2013-02-14 03:55:00
11:15 PM,53.6,50.0,88,29.88,10.0,WNW,11.5,-,N/A,,Clear,290,2013-02-14 04:15:00
11:35 PM,53.6,50.0,88,29.86,10.0,WNW,12.7,-,N/A,,Clear,290,2013-02-14 04:35:00
11:55 PM,53.6,48.2,82,29.86,10.0,WNW,9.2,18.4,N/A,,Clear,300,2013-02-14 04:55:00